SCP
0 0 0 0 0 0 0 0 0 0 0 0 0 0 0 0 0 0 0 0 0 0 0 0 0 0 0 0 0 0 0 0 0 0 0 0 0 0 0 0 0 0 0
0 0 0 0 0 0 0 0 0 0 0 0 0 0 0 0 0 0 0 0 0 0 0 0 0 0 0 0 0 0 0 0 0 0 0 0 0 0 0 0 0 0 0
0 0 0 0 0 0 0 0 0 0 0 0 0 0 0 0 0 0 0 0 0 0 0 0 0 0 0 0 0 0 0 0 0 0 0 0 0 0 0 0 0 0 0
0 0 0 0 0 0 0 0 0 0 0 0 0 0 0 0 0 0 0 0 0 0 0 0 0 0 0 0 0 0 0 0 0 0 0 0 0 0 0 0 0 0 0
0 0 0 0 0 0 0 0 0 0 0 0 0 0 0 0 0 0 0 0 0 0 0 0 0 0 0 0 0 0 0 0 0 0 0 0 0 0 0 0 0 0 0
0 0 0 0 0 0 0 0 0 0 0 0 0 0 0 0 0 0 0 0 0 0 0 0 0 0 0 0 0 0 0 0 0 0 0 0 0 0 0 0 0 0 0
0 0 0 0 0 0 0 0 0 0 0 0 0 0 0 0 0 0 0 0 0 0 0 0 0 0 0 0 0 0 0 0 0 0 0 0 0 0 0 0 0 0 0
0 0 0 0 0 0 0 0 0 0 0 0 0 0 0 0 0 0 0 0 0 0 0 0 0 0 0 0 0 0 0 0 0 0 0 0 0 0 0 0 0 0 0
0 0 0 0 0 0 0 0 0 0 0 0 0 0 0 0 0 0 0 0 0 0 0 0 0 0 0 0 0 0 0 0 0 0 0 0 0 0 0 0 0 0 0
0 0 0 0 0 0 0 0 0 0 0 0 0 0 0 0 0 0 0 0 0 0 0 0 0 0 0 0 0 0 0 0 0 0 0 0 0 0 1 0 0 0 0
0 0 0 0 0 0 0 0 0 0 0 0 0 0 0 0 0 0 0 0 0 0 0 0 0 0 0 0 0 0 0 0 0 0 0 0 0 1 1 1 0 0 0
0 0 0 0 0 0 0 0 0 0 0 0 0 0 0 0 0 0 0 0 0 0 0 0 0 0 0 0 0 0 0 0 0 0 0 0 0 0 1 1 0 0 0
0 0 0 0 0 0 0 0 0 0 0 0 0 0 0 0 0 0 0 0 0 0 0 0 0 0 0 0 0 0 0 0 0 0 0 0 0 0 0 0 0 0 0
0 0 0 0 0 0 0 0 0 0 0 0 0 0 0 0 0 0 0 0 0 0 0 0 0 0 0 0 0 0 0 0 0 0 0 0 0 0 0 0 0 0 0
0 0 0 0 0 0 0 0 0 0 0 0 0 0 0 0 0 0 0 0 0 0 0 0 0 0 0 0 0 0 0 0 0 0 0 0 0 0 0 0 0 0 0
0 0 0 0 0 0 0 0 0 0 0 0 0 0 0 0 0 0 0 0 0 0 0 0 0 0 0 0 0 0 0 0 0 0 0 0 0 0 0 0 0 0 0
0 0 0 0 0 0 0 0 0 0 0 0 0 0 0 0 0 0 0 0 0 0 0 0 0 0 0 0 0 0 0 0 0 0 0 0 0 0 0 0 0 0 0
0 0 0 0 0 0 0 0 0 0 0 0 0 0 0 0 0 0 0 0 0 0 0 0 0 0 0 0 0 0 0 0 0 0 0 0 0 0 0 0 0 0 0
0 0 0 0 0 0 0 0 0 0 0 0 0 0 0 0 0 0 0 0 0 0 0 0 0 0 0 0 0 0 0 0 0 0 0 0 0 0 0 0 0 0 0
0 0 0 0 0 0 0 0 0 0 0 0 0 0 0 0 0 0 0 0 0 0 0 0 0 0 0 0 0 0 0 0 0 0 0 0 0 0 0 0 0 0 0
0 0 0 0 0 0 0 0 0 0 0 0 0 0 0 0 0 0 0 0 0 0 0 0 0 0 0 0 0 0 0 0 0 0 0 0 0 0 0 0 0 0 0
0 0 0 0 0 0 0 0 0 0 0 0 0 0 0 0 0 0 0 0 0 0 0 0 0 0 0 0 0 0 0 0 0 0 0 0 0 0 0 0 0 0 0
0 0 0 0 0 0 0 0 0 0 0 0 0 0 0 0 0 0 0 0 0 0 0 0 0 0 0 0 0 0 0 0 0 0 0 0 0 0 0 0 0 0 0
0 0 0 0 0 0 0 0 0 0 0 0 0 0 0 0 0 0 0 0 0 0 0 0 0 0 0 0 0 0 0 0 0 0 0 0 0 0 0 0 0 0 0
0 0 0 0 0 0 0 0 0 0 0 0 0 0 0 0 0 0 0 0 0 0 0 0 0 0 0 0 0 0 0 0 0 0 0 0 0 0 0 0 0 0 0
0 0 0 0 0 0 0 0 0 0 0 0 0 0 0 0 0 0 0 0 0 0 0 0 0 0 0 0 0 0 0 0 0 0 0 0 0 0 0 0 0 0 0
Wind_Speed
6 6 5 5 5 5 5 5 5 5 5 4 4 3 3 2 2 2 1 1 3 4 2 2 2 3 3 3 2 3 3 3 3 3 3 3 3 4 4 4 5 5 6
6 6 6 6 6 6 5 5 6 5 4 4 5 5 4 4 4 4 3 2 2 2 3 4 4 4 4 3 3 4 4 4 3 3 2 2 2 2 2 3 3 4 4
8 7 6 6 6 6 6 5 6 5 5 5 6 6 5 5 5 5 5 4 3 3 4 5 5 6 6 6 5 5 5 5 5 4 4 3 3 2 2 2 1 1 2
10 8 7 7 7 6 6 6 6 6 6 6 6 5 5 5 7 6 6 6 5 4 5 6 7 7 8 8 8 8 7 7 7 6 6 6 5 5 4 3 2 1 0
12 10 8 7 8 7 7 6 7 6 7 6 6 6 6 6 7 7 8 8 7 7 6 6 7 8 10 11 11 10 10 10 9 9 8 8 7 7 6 5 5 4 2
13 11 8 10 9 7 8 8 8 7 7 6 5 6 7 7 7 8 9 8 8 9 8 8 7 7 11 13 13 13 13 13 12 11 11 10 10 9 8 8 7 6 5
13 12 9 10 10 9 10 10 9 10 8 6 5 6 7 9 10 8 8 8 9 9 9 9 8 7 7 13 15 16 16 15 14 14 13 13 12 12 11 10 9 8 6
14 12 13 11 11 10 12 11 11 8 7 7 6 5 5 6 8 9 8 8 9 8 9 10 10 9 8 7 9 16 18 18 17 16 16 15 15 14 13 12 11 9 8
15 14 15 13 12 12 11 12 12 13 9 9 9 8 6 6 3 5 8 8 9 8 9 9 11 11 10 8 8 14 18 19 19 18 17 17 17 16 15 14 12 11 10
16 16 15 15 14 12 13 12 13 12 12 10 8 10 11 8 6 5 5 7 9 10 10 9 10 11 11 9 10 12 15 17 19 19 18 18 18 17 16 15 14 12 11
16 16 16 15 14 13 14 14 13 13 11 12 10 8 10 10 12 9 10 8 7 8 9 10 9 9 10 11 10 13 16 18 18 18 18 19 18 18 17 16 15 13 12
12 17 16 15 15 13 14 14 13 15 13 13 12 10 9 8 9 10 12 11 10 9 9 9 9 9 9 10 13 15 17 19 20 19 18 18 18 17 17 16 15 14 12
12 15 15 15 14 15 14 13 13 14 15 15 14 11 11 11 10 10 11 11 12 9 7 7 9 9 9 9 10 14 17 20 20 19 18 18 18 17 17 16 15 13 12
13 14 15 15 16 15 14 14 12 13 12 14 15 15 11 11 10 11 10 10 12 10 9 10 7 8 8 8 10 13 11 17 19 19 19 19 18 17 16 16 15 14 13
11 14 14 15 16 16 15 14 12 14 13 13 13 14 13 11 10 10 9 9 10 12 12 9 6 7 7 6 9 8 9 13 17 18 18 17 17 17 16 16 15 14 14
14 14 14 15 15 15 15 14 13 13 14 13 11 13 14 11 10 9 9 9 10 11 12 7 6 4 5 5 7 7 7 10 13 15 16 16 16 16 16 16 15 15 14
14 14 14 14 14 14 14 14 14 13 15 14 13 13 14 13 10 9 9 9 10 10 13 10 3 2 4 5 4 4 5 6 6 12 14 15 15 16 15 15 15 14 14
13 13 13 13 13 13 14 14 15 14 14 14 13 13 14 10 13 10 9 10 10 9 10 11 5 2 3 4 3 4 3 4 5 10 14 15 15 15 15 15 14 14 13
12 12 12 13 13 13 13 14 14 13 13 13 13 13 13 12 12 10 10 9 8 7 7 7 5 2 1 1 2 2 3 3 3 6 11 13 14 15 15 15 14 13 12
11 11 11 12 12 12 12 12 12 12 12 12 11 11 11 11 11 10 9 9 7 6 5 5 4 2 2 2 2 3 3 3 3 3 6 8 11 13 15 15 14 12 12
8 8 9 9 9 8 8 9 9 10 10 9 8 7 7 7 8 7 6 6 6 6 4 4 3 2 2 3 3 3 3 2 3 3 4 5 6 6 8 12 12 12 13
6 6 7 7 7 5 6 8 8 7 7 7 6 5 5 5 5 6 6 6 5 5 5 4 3 4 4 4 3 3 3 3 3 4 4 4 4 6 5 6 10 13 13
6 6 6 6 6 6 7 8 9 7 6 6 6 5 3 2 3 3 3 2 2 2 4 4 4 4 3 5 5 5 4 3 2 3 3 3 3 5 4 5 10 12 12
5 5 5 6 5 4 6 7 8 6 5 4 4 4 4 3 3 4 4 3 2 1 1 1 1 1 2 3 5 4 4 3 2 2 2 3 3 3 2 3 8 10 10
5 5 4 5 5 4 5 7 7 5 4 3 2 3 3 3 4 6 5 4 3 2 4 5 4 4 5 5 6 5 4 3 2 2 3 2 1 1 2 3 4 8 9
5 4 4 3 4 4 5 7 7 4 4 3 2 2 3 4 5 6 5 5 4 3 3 4 5 6 4 4 6 3 4 3 2 2 4 3 2 1 2 2 2 3 5
Wind_Direction
196 194 195 197 200 199 199 203 205 200 207 209 215 226 233 244 253 260 224 79 327 321 292 251 207 166 157 154 149 145 140 132 125 115 105 98 94 87 82 77 69 64 59
203 199 200 202 206 207 209 211 212 213 218 220 224 230 239 242 242 248 257 221 224 289 280 260 234 210 201 201 196 187 183 176 167 162 155 144 132 116 109 89 77 69 63
208 206 207 207 208 208 209 215 216 223 227 227 232 233 238 243 247 246 248 253 238 222 244 248 241 232 226 225 220 217 213 205 200 197 197 194 191 187 172 151 120 92 71
210 209 212 213 208 207 210 214 217 222 226 231 237 235 237 239 244 246 246 244 246 239 223 226 237 238 236 235 233 227 222 221 217 214 213 213 213 212 207 201 204 209 192
210 212 215 215 207 209 214 216 222 227 232 236 243 247 246 244 244 240 242 242 240 240 240 218 225 236 238 239 239 236 230 227 225 223 221 222 222 222 220 219 220 224 228
210 213 216 215 210 212 215 215 222 225 237 241 244 251 253 250 245 243 242 239 236 236 237 235 228 226 231 238 241 241 238 233 228 227 225 226 227 226 227 227 228 227 231
210 212 215 215 212 216 218 218 220 225 228 229 242 254 253 246 243 240 237 237 235 233 235 234 235 235 228 232 238 241 241 238 233 230 228 228 229 229 230 230 231 233 236
213 212 215 215 212 217 221 220 218 224 226 212 224 246 264 248 229 231 232 234 238 233 232 233 234 233 236 233 232 235 239 239 238 233 230 229 229 229 231 232 232 235 238
215 214 216 217 216 216 219 218 216 221 224 216 220 228 241 255 266 220 226 230 233 234 236 234 233 233 234 235 237 234 236 237 239 238 235 232 231 231 231 232 233 235 239
216 215 217 218 218 217 222 220 218 221 225 226 218 230 242 260 265 267 224 228 233 238 239 235 234 234 232 233 235 237 235 236 238 238 238 236 234 232 232 232 232 234 240
215 216 216 218 219 220 222 222 219 220 222 227 223 218 229 241 246 257 267 256 236 235 238 237 236 235 232 231 233 233 230 233 236 237 237 237 237 235 234 233 231 233 238
214 216 216 217 220 221 222 222 222 222 223 227 230 227 222 225 227 235 250 260 260 253 238 234 235 235 232 231 232 229 228 230 232 234 235 235 236 236 236 235 234 235 238
216 215 212 216 219 222 223 222 221 224 224 227 228 229 229 234 240 243 252 261 266 266 253 238 236 236 233 231 233 224 228 231 232 232 232 232 232 233 235 236 237 239 241
221 218 213 216 219 221 221 222 222 224 225 227 230 231 234 234 235 236 243 256 267 267 253 249 239 232 231 228 233 224 233 229 230 231 230 228 228 228 230 232 235 238 240
223 219 215 216 219 220 220 220 223 224 224 227 230 232 234 237 236 237 237 239 253 271 271 259 243 232 226 224 226 224 230 227 226 227 227 227 226 227 227 229 233 236 239
221 220 219 218 220 220 220 221 224 226 226 228 228 232 234 235 236 235 235 236 237 252 268 268 253 234 214 219 221 225 228 225 225 226 224 223 224 224 225 226 229 234 240
225 222 221 220 220 221 220 221 224 225 228 231 230 232 235 235 236 236 234 235 237 240 258 268 259 237 210 214 212 213 215 217 219 220 221 223 223 224 224 226 229 234 240
226 224 222 220 221 222 221 222 225 226 229 231 232 232 236 235 236 236 236 237 239 237 248 263 257 228 218 210 202 202 205 206 213 211 216 222 223 223 223 226 230 235 240
226 222 220 221 221 222 223 224 226 227 228 231 231 232 235 233 238 236 236 239 241 239 239 251 255 212 198 158 177 191 204 212 218 216 217 221 222 223 225 227 230 234 241
224 223 221 223 224 224 225 225 225 227 230 231 231 232 234 232 236 237 237 238 237 237 234 240 241 209 192 159 181 196 203 198 210 211 218 219 220 223 227 228 230 232 237
221 221 219 220 222 222 222 222 222 226 228 229 227 228 230 231 234 236 234 233 227 230 224 223 226 206 196 182 205 189 194 174 198 200 210 214 215 219 220 227 229 231 236
212 209 210 210 213 215 208 208 211 215 215 216 217 218 220 219 227 229 231 232 230 229 225 217 217 215 212 200 174 176 166 166 208 187 200 215 208 220 219 222 228 232 237
202 203 205 203 206 207 197 195 200 204 204 207 207 206 203 198 203 205 200 202 233 249 229 219 220 218 195 187 174 177 182 188 195 152 179 213 206 227 218 226 234 237 238
195 198 198 199 199 199 184 182 181 188 191 195 196 191 188 187 186 175 160 146 128 90 93 210 209 198 175 166 173 168 158 133 85 130 177 216 206 225 216 229 236 238 240
190 192 185 186 188 186 174 174 170 168 168 169 165 166 171 174 175 169 158 154 137 101 69 81 88 96 110 130 140 131 141 154 175 182 188 217 200 237 235 229 229 238 243
182 168 163 172 174 178 167 169 171 164 160 158 147 143 161 162 161 162 162 159 159 145 121 98 85 81 88 116 138 150 162 170 160 187 172 188 179 203 246 215 221 237 245